Change the Weather History Date:

Monday, August 12, 2013

  Actual Average Record
Temperature  
Mean Temperature 58 °F -  
Max Temperature 65 °F 63 °F 71 °F (2003)
Min Temperature 52 °F 51 °F 48 °F (2008)
Degree Days  
Heating Degree Days 6    
Growing Degree Days 8 (Base 50)    
Moisture  
Dew Point 48 °F    
Average Humidity 71    
Maximum Humidity 94    
Minimum Humidity 43    
Precipitation  
Precipitation 0.00 in 0.12 in - ()
Sea Level Pressure  
Sea Level Pressure 30.14 in    
Wind  
Wind Speed 9 mph ()    
Max Wind Speed 18 mph    
Max Gust Speed -    
Visibility 6.2 miles    
Events Rain    
Averages and records for this station are not official NWS values.
T = Trace of Precipitation, MM = Missing Value Source: Averaged Metar Reports

Daily Weather History Graph

Daily Weather History Graph

Search for Another Location

Airport or City:

Trip Planner

Search our weather history database for the weather conditions in past years. The results will help you decide how hot, cold, wet, or windy it might be!

Date:

Astronomy

Aug. 12, 2013 Rise Set
Actual Time 6:13 AM IST 9:03 PM IST
Civil Twilight 5:35 AM IST 9:41 PM IST
Nautical Twilight 4:45 AM IST 10:30 PM IST
Astronomical Twilight 3:42 AM IST 11:32 PM IST
Moon 12:40 PM IST (8/12) 10:55 PM IST (8/12)
Length of Visible Light 16h 06m
Length of Day
14h 49m
Waxing Crescent, 29% of the Moon is Illuminated
Aug 12
Waxing Crescent
Aug 14
First Quarter
Aug 21
Full
Aug 28
Last Quarter
Sep 5
New

Hourly Weather History & Observations

Time (IST) Temp. Dew Point Humidity Pressure Visibility Wind Dir Wind Speed Gust Speed Precip Events Conditions
12:00 AM 55.4 °F 50.0 °F 82% 30.12 in 6.2 mi West 8.1 mph - N/A   Mostly Cloudy
12:30 AM 55.4 °F 50.0 °F 82% 30.12 in 6.2 mi West 6.9 mph - N/A Rain Light Rain Showers
1:00 AM 54 °F 50 °F 82% 30.13 in 25 mi West 11.2 mph - - Rain Light Rain Showers
1:00 AM 53.6 °F 50.0 °F 88% 30.12 in 6.2 mi West 10.4 mph - N/A   Mostly Cloudy
1:30 AM 53.6 °F 50.0 °F 88% 30.12 in 6.2 mi West 5.8 mph - N/A   Mostly Cloudy
2:00 AM 53.6 °F 50.0 °F 88% 30.12 in 6.2 mi West 6.9 mph - N/A   Mostly Cloudy
2:30 AM 53.6 °F 50.0 °F 88% 30.12 in 6.2 mi WNW 6.9 mph - N/A Rain Light Rain Showers
3:00 AM 53.6 °F 50.0 °F 88% 30.12 in 6.2 mi West 6.9 mph - N/A   Mostly Cloudy
3:30 AM 53.6 °F 50.0 °F 88% 30.12 in 6.2 mi West 8.1 mph - N/A   Mostly Cloudy
4:00 AM 51.8 °F 50.0 °F 94% 30.09 in 6.2 mi West 9.2 mph - N/A   Scattered Clouds
4:30 AM 51.8 °F 50.0 °F 94% 30.09 in 6.2 mi West 5.8 mph - N/A   Scattered Clouds
5:00 AM 53.6 °F 50.0 °F 88% 30.09 in 6.2 mi West 6.9 mph - N/A   Scattered Clouds
5:30 AM 53.6 °F 50.0 °F 88% 30.09 in 6.2 mi West 5.8 mph - N/A   Mostly Cloudy
6:00 AM 53.6 °F 48.2 °F 82% 30.09 in 6.2 mi West 9.2 mph - N/A   Mostly Cloudy
6:30 AM 53.6 °F 48.2 °F 82% 30.12 in 6.2 mi West 5.8 mph - N/A   Mostly Cloudy
7:00 AM 53 °F 49 °F 80% 30.14 in 22 mi WNW 6.7 mph - -   Partly Cloudy
7:00 AM 53.6 °F 48.2 °F 82% 30.12 in 6.2 mi WNW 5.8 mph - N/A   Scattered Clouds
7:30 AM 53.6 °F 50.0 °F 88% 30.12 in 6.2 mi West 6.9 mph - N/A   Mostly Cloudy
8:00 AM 53.6 °F 48.2 °F 82% 30.12 in 6.2 mi West 8.1 mph - N/A   Mostly Cloudy
8:30 AM 55.4 °F 50.0 °F 82% 30.12 in 6.2 mi West 8.1 mph - N/A   Mostly Cloudy
9:00 AM 55.4 °F 50.0 °F 82% 30.15 in 6.2 mi West 11.5 mph - N/A Rain Light Rain Showers
9:30 AM 55.4 °F 51.8 °F 88% 30.15 in 6.2 mi West 8.1 mph - N/A   Scattered Clouds
10:00 AM 57.2 °F 51.8 °F 82% 30.15 in 6.2 mi West 8.1 mph - N/A   Partly Cloudy
10:30 AM 60.8 °F 50.0 °F 68% 30.12 in 6.2 mi WNW 11.5 mph - N/A   Scattered Clouds
11:00 AM 60.8 °F 50.0 °F 68% 30.15 in 6.2 mi WNW 13.8 mph - N/A   Mostly Cloudy
11:30 AM 57.2 °F 51.8 °F 82% 30.15 in 6.2 mi WNW 18.4 mph - N/A Rain Light Rain Showers
12:00 PM 60.8 °F 50.0 °F 68% 30.15 in 6.2 mi WNW 15.0 mph - N/A   Mostly Cloudy
12:30 PM 60.8 °F 48.2 °F 63% 30.15 in 6.2 mi NW 15.0 mph - N/A   Mostly Cloudy
1:00 PM 62 °F 48 °F 49% 30.17 in 25 mi WNW 15.7 mph - -   Partly Cloudy
1:00 PM 62.6 °F 48.2 °F 59% 30.15 in 6.2 mi WNW 16.1 mph - N/A   Mostly Cloudy
1:30 PM 62.6 °F 48.2 °F 59% 30.15 in 6.2 mi WNW 17.3 mph - N/A   Mostly Cloudy
2:00 PM 62.6 °F 48.2 °F 59% 30.15 in 6.2 mi WNW 16.1 mph - N/A   Mostly Cloudy
2:30 PM 62.6 °F 46.4 °F 55% 30.15 in 6.2 mi WNW 13.8 mph - N/A   Mostly Cloudy
3:00 PM 62.6 °F 46.4 °F 55% 30.15 in 6.2 mi NW 15.0 mph - N/A   Mostly Cloudy
3:30 PM 62.6 °F 48.2 °F 59% 30.15 in 6.2 mi NW 13.8 mph - N/A   Mostly Cloudy
4:00 PM 62.6 °F 44.6 °F 52% 30.15 in 6.2 mi NW 12.7 mph - N/A   Mostly Cloudy
4:30 PM 62.6 °F 44.6 °F 52% 30.15 in 6.2 mi NW 15.0 mph - N/A   Mostly Cloudy
5:00 PM 64.4 °F 46.4 °F 52% 30.15 in 6.2 mi NW 15.0 mph - N/A   Scattered Clouds
5:30 PM 64.4 °F 46.4 °F 52% 30.15 in 6.2 mi NW 15.0 mph - N/A   Scattered Clouds
6:00 PM 62.6 °F 44.6 °F 52% 30.15 in 6.2 mi NW 12.7 mph - N/A   Scattered Clouds
6:30 PM 62.6 °F 46.4 °F 55% 30.18 in 6.2 mi NW 11.5 mph - N/A   Scattered Clouds
7:00 PM 62 °F 45 °F 43% 30.17 in 31 mi WNW 13.4 mph - -   Scattered Clouds
7:00 PM 62.6 °F 44.6 °F 52% 30.15 in 6.2 mi WNW 12.7 mph - N/A   Mostly Cloudy
7:30 PM 60.8 °F 46.4 °F 59% 30.18 in 6.2 mi WNW 12.7 mph - N/A   Mostly Cloudy
8:00 PM 59.0 °F 46.4 °F 63% 30.18 in 6.2 mi WNW 10.4 mph - N/A   Mostly Cloudy
8:30 PM 59.0 °F 44.6 °F 59% 30.18 in 6.2 mi NW 9.2 mph - N/A   Mostly Cloudy
9:00 PM 57.2 °F 44.6 °F 63% 30.18 in 6.2 mi WNW 4.6 mph - N/A   Scattered Clouds
9:30 PM 57.2 °F 44.6 °F 63% 30.21 in 6.2 mi WNW 6.9 mph - N/A   Scattered Clouds
10:00 PM 55.4 °F 44.6 °F 67% 30.21 in 6.2 mi NW 9.2 mph - N/A   Mostly Cloudy
10:30 PM 55.4 °F 44.6 °F 67% 30.21 in 6.2 mi WNW 8.1 mph - N/A   Mostly Cloudy
11:00 PM 55.4 °F 46.4 °F 72% 30.21 in 6.2 mi WNW 8.1 mph - N/A   Mostly Cloudy
11:30 PM 55.4 °F 48.2 °F 77% 30.21 in 6.2 mi WNW 5.8 mph - N/A   Mostly Cloudy